period_start,C,m1,H,J0,J1,J2,J3,J4,J5,JA,JB,JC,JD,JJ,JK,JN,#
2014-11-08 00:01:33,0.06,2.80,0.00,23.27,27.67,30.53,4.75,27.40,996.31,2030.04,2422.93,2593.03,2788.00,349.77,340.14,22.04,0000 0000 0000 0000 000000
2014-11-08 00:06:34,0.06,2.80,0.00,23.30,27.67,30.60,4.74,27.55,996.42,2030.05,2421.99,2592.96,2787.29,350.12,340.55,22.07,0000 0000 0000 0000 000000
2014-11-08 00:11:35,0.10,2.81,0.00,23.32,27.68,30.63,4.75,27.48,996.53,2030.02,2421.03,2592.26,2786.82,350.11,340.64,22.10,0000 0000 0000 0000 000000
2014-11-08 00:16:36,0.07,2.81,0.00,23.36,27.68,30.63,4.70,27.47,996.59,2030.03,2420.15,2592.00,2786.06,349.85,340.21,22.13,0000 0000 0000 0000 000000
2014-11-08 00:21:37,0.06,2.81,0.00,23.38,27.69,30.66,4.73,27.53,996.59,2030.04,2419.36,2591.91,2785.74,350.05,340.40,22.16,0000 0000 0000 0000 000000
2014-11-08 00:26:38,0.11,2.81,0.00,23.35,27.69,30.65,4.75,27.52,996.60,2030.02,2418.37,2591.14,2785.02,349.88,340.25,22.19,0000 0000 0000 0000 000000
2014-11-08 00:31:40,0.07,2.82,0.00,23.37,27.70,30.62,4.63,27.69,996.60,2030.02,2417.45,2590.98,2784.37,349.73,340.57,22.22,0000 0000 0000 0000 000000
2014-11-08 00:36:41,0.09,2.82,0.00,23.34,27.70,30.60,4.75,27.54,996.60,2030.00,2416.58,2590.38,2783.93,350.07,340.50,22.25,0000 0000 0000 0000 000000
2014-11-08 00:41:42,0.07,2.82,0.00,23.31,27.70,30.60,4.66,27.37,996.60,2030.00,2415.69,2590.00,2783.11,350.05,340.42,22.28,0000 0000 0000 0000 000000
2014-11-08 00:46:44,0.05,2.82,0.00,23.32,27.70,30.66,4.59,27.32,996.61,2030.00,2414.88,2589.95,2782.76,349.40,339.96,22.31,0000 0000 0000 0000 000000
2014-11-08 00:51:45,0.10,2.83,0.00,23.29,27.70,30.70,4.72,27.34,996.61,2030.00,2414.00,2589.20,2782.04,349.79,340.43,22.34,0000 0000 0000 0000 000000
2014-11-08 00:56:46,0.07,2.83,0.00,23.31,27.70,30.69,4.64,27.37,996.68,2030.00,2413.13,2589.00,2781.60,349.88,340.70,22.37,0000 0000 0000 0000 000000
2014-11-08 01:01:48,0.06,2.83,0.00,23.32,27.70,30.67,4.68,27.22,996.68,2030.01,2412.30,2588.86,2781.00,349.75,340.11,22.40,0000 0000 0000 0000 000000
2014-11-08 01:06:49,0.10,2.83,0.00,23.33,27.70,30.66,4.68,27.28,996.89,2030.00,2411.54,2588.21,2780.47,350.17,340.61,22.43,0000 0000 0000 0000 000000
2014-11-08 01:11:50,0.04,2.84,0.00,23.32,27.71,30.64,4.71,27.25,997.08,2030.00,2410.71,2587.99,2779.98,349.76,340.64,22.45,0000 0000 0000 0000 000000
2014-11-08 01:16:51,0.07,2.84,0.00,23.32,27.72,30.65,4.69,27.31,997.07,2030.00,2409.92,2587.81,2779.22,350.39,340.90,22.48,0000 0000 0000 0000 000000
2014-11-08 01:21:52,0.08,2.84,0.00,23.32,27.72,30.63,4.66,27.15,997.08,2030.00,2409.06,2587.07,2778.97,350.16,340.73,22.51,0000 0000 0000 0000 000000
2014-11-08 01:26:54,0.07,2.84,0.00,23.33,27.72,30.65,4.68,27.23,997.09,2030.00,2408.24,2587.00,2778.29,349.80,340.57,22.54,0000 0000 0000 0000 000000
2014-11-08 01:31:55,0.04,2.84,0.00,23.32,27.72,30.64,4.69,27.31,997.09,2030.00,2407.53,2586.92,2777.99,349.93,340.77,22.57,0000 0000 0000 0000 000000
2014-11-08 01:36:57,0.11,2.85,0.00,23.28,27.72,30.71,4.73,27.44,997.09,2030.00,2406.73,2586.29,2777.35,349.71,340.35,22.60,0000 0000 0000 0000 000000
2014-11-08 01:41:58,0.03,2.85,0.00,23.27,27.72,30.72,4.72,27.43,997.10,2030.00,2405.98,2586.00,2776.93,349.88,340.72,22.63,0000 0000 0000 0000 000000
2014-11-08 01:46:59,0.08,2.85,0.00,23.29,27.72,30.73,4.75,27.38,997.09,2030.00,2405.14,2585.89,2776.16,350.15,340.94,22.66,0000 0000 0000 0000 000000
2014-11-08 01:52:01,0.09,2.85,0.00,23.29,27.72,30.72,4.66,27.34,997.10,2030.00,2404.42,2585.22,2775.99,350.00,340.62,22.69,0000 0000 0000 0000 000000
2014-11-08 01:57:02,0.06,2.85,0.00,23.26,27.72,30.68,4.60,27.26,997.10,2030.00,2403.65,2585.01,2775.33,349.73,340.46,22.72,0000 0000 0000 0000 000000
2014-11-08 02:02:04,0.03,2.86,0.00,23.26,27.72,30.68,4.69,27.23,997.18,2030.00,2402.88,2584.98,2774.98,350.04,340.77,22.75,0000 0000 0000 0000 000000
2014-11-08 02:07:05,0.11,2.86,0.00,23.27,27.72,30.69,4.74,27.46,997.19,2030.00,2402.05,2584.43,2774.41,350.23,340.85,22.78,0000 0000 0000 0000 000000
2014-11-08 02:12:06,0.05,2.86,0.00,23.28,27.72,30.65,4.64,27.34,997.51,2030.00,2401.19,2584.01,2773.96,349.71,340.58,22.81,0000 0000 0000 0000 000000
2014-11-08 02:17:07,0.08,2.86,0.00,23.28,27.72,30.65,4.69,27.44,997.56,2029.99,2400.41,2583.92,2773.16,350.47,341.24,22.84,0000 0000 0000 0000 000000
2014-11-08 02:22:08,0.08,2.87,0.00,23.27,27.72,30.65,4.71,27.35,997.57,2029.99,2399.65,2583.27,2772.95,349.72,340.61,22.86,0000 0000 0000 0000 000000
2014-11-08 02:27:10,0.06,2.87,0.00,23.26,27.74,30.65,4.71,27.18,997.57,2029.99,2398.84,2583.01,2772.20,350.18,341.09,22.89,0000 0000 0000 0000 000000
2014-11-08 02:32:11,0.03,2.87,0.00,23.26,27.75,30.69,4.60,27.19,997.57,2029.99,2398.04,2582.93,2771.97,349.81,340.74,22.92,0000 0000 0000 0000 000000
2014-11-08 02:37:12,0.12,2.87,0.00,23.26,27.75,30.72,4.62,27.48,997.57,2029.99,2397.21,2582.17,2771.20,349.24,340.28,22.95,0000 0000 0000 0000 000000
2014-11-08 02:42:14,0.05,2.87,0.00,23.26,27.75,30.73,4.73,27.39,997.57,2029.99,2396.29,2582.00,2770.89,349.73,340.61,22.98,0000 0000 0000 0000 000000
2014-11-08 02:47:15,0.08,2.88,0.00,23.25,27.75,30.74,4.60,27.41,997.58,2029.99,2395.71,2581.80,2770.11,349.21,340.02,23.01,0000 0000 0000 0000 000000
2014-11-08 02:52:16,0.07,2.88,0.00,23.22,27.75,30.74,4.71,27.38,997.65,2029.99,2394.91,2581.13,2769.83,349.83,340.85,23.04,0000 0000 0000 0000 000000
2014-11-08 02:57:17,0.06,2.88,0.00,23.23,27.75,30.74,4.72,27.38,997.77,2029.98,2394.05,2581.00,2769.08,349.78,340.69,23.07,0000 0000 0000 0000 000000
2014-11-08 03:02:18,0.09,2.88,0.00,23.25,27.75,30.70,4.66,27.45,997.76,2029.99,2393.25,2580.66,2768.75,349.41,340.31,23.10,0000 0000 0000 0000 000000
2014-11-08 03:07:19,0.08,2.89,0.00,23.24,27.75,30.70,4.71,27.39,998.03,2029.99,2392.43,2580.06,2768.04,349.80,340.92,23.13,0000 0000 0000 0000 000000
2014-11-08 03:12:20,0.04,2.89,0.00,23.23,27.75,30.70,4.65,27.34,998.06,2029.99,2391.74,2579.99,2767.81,349.67,340.73,23.16,0000 0000 0000 0000 000000
2014-11-08 03:17:21,0.08,2.89,0.00,23.18,27.75,30.70,4.77,27.44,998.06,2029.99,2390.92,2579.66,2767.05,350.55,341.73,23.19,0000 0000 0000 0000 000000
2014-11-08 03:22:23,0.08,2.89,0.00,23.19,27.75,30.69,4.74,27.51,998.06,2029.99,2390.08,2579.05,2766.74,350.37,341.48,23.22,0000 0000 0000 0000 000000
2014-11-08 03:27:24,0.05,2.89,0.00,23.21,27.76,30.72,4.71,27.56,998.06,2029.99,2389.34,2578.99,2766.04,350.14,341.20,23.25,0000 0000 0000 0000 000000
2014-11-08 03:32:26,0.07,2.90,0.00,23.22,27.77,30.72,4.67,27.72,998.07,2029.99,2388.70,2578.67,2765.75,349.63,340.94,23.27,0000 0000 0000 0000 000000
2014-11-08 03:37:27,0.07,2.90,0.00,23.24,27.77,30.72,4.70,27.71,998.08,2029.98,2387.90,2578.05,2765.04,350.32,341.25,23.30,0000 0000 0000 0000 000000
2014-11-08 03:42:28,0.05,2.90,0.00,23.23,27.77,30.73,4.67,27.61,998.15,2029.96,2387.07,2577.98,2764.58,349.86,340.96,23.33,0000 0000 0000 0000 000000
2014-11-08 03:47:30,0.10,2.90,0.00,23.23,27.77,30.72,4.70,27.63,998.35,2029.98,2386.47,2577.43,2764.02,349.91,341.04,23.36,0000 0000 0000 0000 000000
2014-11-08 03:52:31,0.07,2.91,0.00,23.23,27.77,30.74,4.75,27.60,998.43,2029.96,2385.60,2577.01,2763.45,350.36,341.73,23.39,0000 0000 0000 0000 000000
2014-11-08 03:57:32,0.04,2.91,0.00,23.23,27.77,30.74,4.63,27.54,998.44,2029.97,2384.86,2576.83,2762.96,349.55,340.93,23.42,0000 0000 0000 0000 000000
2014-11-08 04:02:34,0.11,2.91,0.00,23.23,27.78,30.74,4.67,27.50,998.54,2029.96,2384.04,2576.06,2762.23,349.50,340.65,23.45,0000 0000 0000 0000 000000
2014-11-08 04:07:35,0.03,2.91,0.00,23.22,27.79,30.76,4.69,27.55,998.55,2029.94,2383.33,2576.00,2761.96,350.23,341.39,23.48,0000 0000 0000 0000 000000
2014-11-08 04:12:36,0.09,2.91,0.00,23.21,27.80,30.78,4.74,27.52,998.56,2029.86,2382.60,2575.60,2761.19,350.11,341.02,23.51,0000 0000 0000 0000 000000
2014-11-08 04:17:37,0.03,2.92,0.00,23.20,27.80,30.78,4.65,27.67,998.56,2029.80,2381.88,2575.04,2760.89,349.56,340.84,23.54,0000 0000 0000 0000 000000
2014-11-08 04:22:38,0.07,2.92,0.00,23.20,27.80,30.79,4.67,27.57,998.56,2029.71,2381.04,2574.96,2760.08,349.54,340.88,23.57,0000 0000 0000 0000 000000
2014-11-08 04:27:40,0.09,2.92,0.00,23.20,27.80,30.79,4.71,27.60,998.56,2029.64,2380.27,2574.28,2759.74,350.18,341.46,23.60,0000 0000 0000 0000 000000
2014-11-08 04:32:41,0.05,2.92,0.00,23.19,27.80,30.81,4.71,27.46,998.62,2029.46,2379.58,2574.00,2759.03,349.94,341.37,23.63,0000 0000 0000 0000 000000
2014-11-08 04:37:42,0.12,2.92,0.00,23.19,27.80,30.81,4.74,27.88,998.67,2029.50,2378.70,2573.48,2758.47,350.21,341.75,23.66,0000 0000 0000 0000 000000
2014-11-08 04:42:43,0.03,2.93,0.00,23.17,27.80,30.84,4.72,27.62,998.67,2029.45,2377.97,2573.00,2757.99,350.22,341.48,23.68,0000 0000 0000 0000 000000
2014-11-08 04:47:44,0.09,2.93,0.00,23.15,27.80,30.83,4.67,27.65,998.74,2029.42,2377.14,2572.88,2757.27,349.93,341.33,23.71,0000 0000 0000 0000 000000
2014-11-08 04:52:45,0.05,2.93,0.00,23.15,27.80,30.84,4.73,27.66,998.97,2029.36,2376.48,2572.15,2756.87,349.86,341.34,23.74,0000 0000 0000 0000 000000
2014-11-08 04:57:46,0.09,2.93,0.00,23.14,27.80,30.86,4.72,27.52,999.00,2029.51,2375.82,2572.00,2756.19,350.12,341.71,23.77,0000 0000 0000 0000 000000
2014-11-08 05:02:47,0.07,2.94,0.00,23.13,27.80,30.88,4.73,27.65,998.99,2029.56,2375.02,2571.65,2755.93,350.05,341.55,23.80,0000 0000 0000 0000 000000
2014-11-08 05:07:49,0.12,2.94,0.00,23.09,27.80,30.86,4.70,27.67,999.02,2029.56,2374.17,2571.03,2755.15,349.96,341.55,23.83,0000 0000 0000 0000 000000
2014-11-08 05:12:50,0.01,2.94,0.00,23.10,27.80,30.86,4.73,27.63,999.04,2029.43,2373.44,2570.84,2754.68,350.50,341.99,23.86,0000 0000 0000 0000 000000
2014-11-08 05:17:51,0.09,2.94,0.00,23.07,27.80,30.85,4.77,27.59,999.05,2029.32,2372.86,2570.15,2754.02,350.00,341.53,23.89,0000 0000 0000 0000 000000
2014-11-08 05:22:52,0.05,2.94,0.00,23.06,27.78,30.85,4.66,27.62,999.05,2029.45,2372.06,2570.01,2753.85,349.26,341.04,23.92,0000 0000 0000 0000 000000
2014-11-08 05:27:54,0.08,2.95,0.00,23.04,27.77,30.86,4.77,27.78,999.05,2029.37,2371.28,2569.94,2753.10,349.80,341.48,23.95,0000 0000 0000 0000 000000
2014-11-08 05:32:55,0.06,2.95,0.00,23.02,27.77,30.86,4.73,27.67,999.07,2029.31,2370.66,2569.35,2752.89,350.00,341.89,23.98,0000 0000 0000 0000 000000
2014-11-08 05:37:57,0.05,2.95,0.00,23.01,27.77,30.85,4.70,27.97,999.05,2029.17,2369.81,2569.01,2752.10,350.25,341.87,24.01,0000 0000 0000 0000 000000
2014-11-08 05:42:58,0.05,2.95,0.00,22.98,27.76,30.85,4.78,27.86,999.06,2029.23,2369.04,2568.96,2751.96,350.39,342.08,24.04,0000 0000 0000 0000 000000
2014-11-08 05:47:59,0.14,2.95,0.00,22.95,27.75,30.86,4.66,27.71,999.13,2029.34,2368.37,2568.33,2751.25,349.78,341.54,24.07,0000 0000 0000 0000 000000
2014-11-08 05:53:01,0.05,2.96,0.00,22.93,27.75,30.85,4.74,27.72,999.39,2029.44,2367.76,2568.01,2751.00,350.17,341.93,24.10,0000 0000 0000 0000 000000
2014-11-08 05:58:02,0.10,2.96,0.00,22.89,27.74,30.82,4.68,27.82,999.43,2029.75,2367.03,2567.99,2750.79,349.50,341.59,24.12,0000 0000 0000 0000 000000
2014-11-08 06:03:03,0.08,2.96,0.00,22.90,27.72,30.81,4.71,27.88,999.49,2029.86,2366.53,2567.84,2750.07,350.21,342.16,24.15,0000 0000 0000 0000 000000
2014-11-08 06:08:05,0.07,2.96,0.00,22.87,27.72,30.81,4.65,27.68,999.53,2029.94,2365.88,2567.12,2749.96,349.33,341.61,24.18,0000 0000 0000 0000 000000
2014-11-08 06:13:06,0.06,2.97,0.00,22.87,27.71,30.80,4.75,27.88,999.53,2029.93,2365.04,2567.00,2749.24,350.25,342.18,24.21,0000 0000 0000 0000 000000
2014-11-08 06:18:07,0.06,2.97,0.00,22.82,27.70,30.78,4.77,27.90,999.53,2029.97,2364.21,2566.89,2748.97,350.33,342.37,24.24,0000 0000 0000 0000 000000
2014-11-08 06:23:08,0.11,2.97,0.00,22.81,27.69,30.77,4.78,27.89,999.53,2029.98,2363.45,2566.27,2748.29,350.43,342.48,24.27,0000 0000 0000 0000 000000
2014-11-08 06:28:10,0.04,2.97,0.00,22.79,27.67,30.77,4.74,27.82,999.53,2029.99,2362.77,2566.01,2747.99,350.29,342.27,24.30,0000 0000 0000 0000 000000
2014-11-08 06:33:11,0.06,2.97,0.00,22.75,27.66,30.74,4.72,27.78,999.53,2029.98,2361.97,2565.94,2747.30,350.01,342.01,24.33,0000 0000 0000 0000 000000
2014-11-08 06:38:12,0.09,2.98,0.00,22.74,27.65,30.73,4.72,28.09,999.53,2029.99,2361.14,2565.41,2747.00,350.19,342.39,24.36,0000 0000 0000 0000 000000
2014-11-08 06:43:14,0.08,2.98,0.00,22.71,27.62,30.72,4.66,28.00,999.53,2029.99,2360.44,2565.01,2746.45,349.90,342.10,24.39,0000 0000 0000 0000 000000
2014-11-08 06:48:15,0.02,2.98,0.00,22.69,27.62,30.68,4.74,27.88,999.53,2029.99,2359.87,2564.99,2746.02,350.12,342.07,24.42,0000 0000 0000 0000 000000
2014-11-08 06:53:16,0.09,2.98,0.00,22.66,27.60,30.67,4.72,27.91,999.53,2029.99,2359.01,2564.65,2745.64,349.51,341.71,24.45,0000 0000 0000 0000 000000
2014-11-08 06:58:17,0.08,2.99,0.00,22.63,27.59,30.63,4.76,27.93,999.53,2029.99,2358.11,2564.03,2745.01,350.25,342.44,24.48,0000 0000 0000 0000 000000
2014-11-08 07:03:18,0.06,2.99,0.00,22.58,27.57,30.59,4.68,27.82,999.64,2030.00,2357.32,2563.99,2744.66,349.30,341.67,24.51,0000 0000 0000 0000 000000
2014-11-08 07:08:20,0.07,2.99,0.00,22.59,27.55,30.59,4.75,27.91,999.85,2030.01,2356.62,2563.72,2744.04,349.94,342.35,24.53,0000 0000 0000 0000 000000
2014-11-08 07:13:21,0.07,2.99,0.00,22.57,27.53,30.51,4.75,27.62,999.98,2030.02,2355.89,2563.10,2743.70,350.00,342.48,24.56,0000 0000 0000 0000 000000
2014-11-08 07:18:22,0.06,2.99,0.00,22.55,27.51,30.50,4.78,27.74,1000.01,2030.03,2355.05,2562.99,2743.03,350.27,342.90,24.59,0000 0000 0000 0000 000000
2014-11-08 07:23:23,0.09,3.00,0.00,22.52,27.50,30.52,4.69,27.73,1000.01,2030.09,2354.27,2562.80,2742.83,349.95,342.53,24.62,0000 0000 0000 0000 000000
2014-11-08 07:28:25,0.09,3.00,0.00,22.49,27.47,30.49,4.71,27.86,1000.01,2030.09,2353.61,2562.09,2742.07,349.72,342.36,24.65,0000 0000 0000 0000 000000
2014-11-08 07:33:26,0.08,3.00,0.00,22.47,27.46,30.41,4.69,27.83,1000.01,2030.30,2353.00,2562.00,2741.97,349.55,342.13,24.68,0000 0000 0000 0000 000000
2014-11-08 07:38:27,0.15,3.01,0.00,22.43,27.44,30.42,4.75,27.96,1000.02,2030.81,2352.25,2561.98,2741.44,350.29,342.67,24.71,0000 0000 0000 0000 000000
2014-11-08 07:43:28,0.06,3.01,0.00,22.42,27.42,30.41,4.75,27.90,1000.02,2030.88,2351.62,2561.71,2741.00,349.80,342.48,24.74,0000 0000 0000 0000 000000
2014-11-08 07:48:30,0.07,3.01,0.00,22.39,27.40,30.40,4.70,27.86,1000.02,2030.97,2350.94,2561.12,2740.78,349.80,342.59,24.77,0000 0000 0000 0000 000000
2014-11-08 07:53:31,0.07,3.01,0.00,22.35,27.37,30.37,4.73,27.87,1000.06,2030.97,2350.11,2561.00,2740.07,349.58,342.55,24.80,0000 0000 0000 0000 000000
2014-11-08 07:58:32,0.04,3.01,0.00,22.33,27.35,30.31,4.76,27.97,1000.08,2030.99,2349.49,2560.99,2739.99,350.00,342.81,24.83,0000 0000 0000 0000 000000
2014-11-08 08:03:34,0.05,3.02,0.00,22.29,27.33,30.32,4.72,27.89,1000.29,2030.99,2348.94,2560.81,2739.59,349.72,342.79,24.86,0000 0000 0000 0000 000000
2014-11-08 08:08:35,0.09,3.02,0.00,22.26,27.31,30.31,4.84,27.89,1000.47,2031.00,2348.13,2560.15,2739.02,350.58,343.66,24.89,0000 0000 0000 0000 000000
2014-11-08 08:13:36,0.04,3.02,0.00,22.26,27.29,30.27,4.71,27.88,1000.46,2031.01,2347.51,2560.00,2738.95,350.21,343.34,24.92,0000 0000 0000 0000 000000
2014-11-08 08:18:37,0.05,3.02,0.00,22.22,27.27,30.25,4.75,27.93,1000.45,2031.04,2346.96,2559.98,2738.32,350.42,343.90,24.94,0000 0000 0000 0000 000000
2014-11-08 08:23:38,0.11,3.02,0.00,22.18,27.25,30.26,4.69,28.02,1000.48,2031.24,2346.15,2559.83,2738.01,349.23,342.42,24.97,0000 0000 0000 0000 000000
2014-11-08 08:28:39,0.12,3.03,0.00,22.14,27.22,30.20,4.73,27.67,1000.49,2031.48,2345.62,2559.13,2737.80,350.02,343.06,25.00,0000 0000 0000 0000 000000
2014-11-08 08:33:40,0.11,3.03,0.00,22.11,27.20,30.17,4.66,27.68,1000.51,2031.90,2345.01,2559.01,2737.15,349.66,343.01,25.03,0000 0000 0000 0000 000000
2014-11-08 08:38:41,0.04,3.03,0.00,22.12,27.18,30.10,4.70,27.96,1000.61,2031.96,2344.29,2559.00,2736.99,349.73,343.05,25.06,0000 0000 0000 0000 000000
2014-11-08 08:43:43,0.02,3.03,0.00,22.09,27.15,30.11,4.68,27.72,1000.81,2031.98,2343.98,2559.00,2736.80,349.63,342.96,25.09,0000 0000 0000 0000 000000
2014-11-08 08:48:44,0.06,3.04,0.00,22.06,27.13,30.08,4.73,27.70,1000.95,2031.99,2343.28,2558.98,2736.15,349.48,343.00,25.12,0000 0000 0000 0000 000000
2014-11-08 08:53:45,0.02,3.04,0.00,22.05,27.11,30.08,4.75,27.61,1000.99,2031.99,2342.92,2558.82,2736.00,349.94,343.46,25.15,0000 0000 0000 0000 000000
2014-11-08 08:58:47,0.07,3.04,0.00,22.02,27.08,30.03,4.73,27.48,1001.00,2031.99,2342.12,2558.30,2735.94,350.36,344.23,25.18,0000 0000 0000 0000 000000
2014-11-08 09:03:48,0.07,3.04,0.00,22.00,27.06,29.99,4.75,27.63,1001.03,2031.99,2341.70,2558.03,2735.32,350.11,343.66,25.21,0000 0000 0000 0000 000000
2014-11-08 09:08:49,0.02,3.04,0.00,21.99,27.04,30.05,4.73,27.48,1001.17,2032.00,2341.02,2558.00,2735.02,349.86,343.37,25.24,0000 0000 0000 0000 000000
2014-11-08 09:13:50,0.03,3.04,0.00,22.00,27.01,30.02,4.74,27.63,1001.45,2032.01,2340.53,2558.00,2734.97,349.77,343.42,25.27,0000 0000 0000 0000 000000
2014-11-08 09:18:52,0.05,3.04,0.00,21.97,27.00,29.97,4.69,27.61,1001.48,2032.02,2339.96,2557.90,2734.36,349.82,343.51,25.30,0000 0000 0000 0000 000000
2014-11-08 09:23:53,0.08,3.05,0.00,21.98,26.97,29.97,4.76,27.51,1001.48,2032.04,2339.17,2557.36,2734.01,349.79,343.23,25.33,0000 0000 0000 0000 000000
2014-11-08 09:28:55,0.04,3.05,0.00,21.97,26.95,29.98,4.76,27.48,1001.48,2032.12,2338.82,2557.06,2733.97,350.21,343.82,25.35,0000 0000 0000 0000 000000
2014-11-08 09:33:56,0.14,3.05,0.00,21.96,26.92,29.98,4.79,27.51,1001.49,2032.54,2338.07,2557.00,2733.71,349.88,343.75,25.38,0000 0000 0000 0000 000000
2014-11-08 09:38:57,0.08,3.06,0.00,21.96,26.91,29.97,4.73,27.77,1001.50,2032.88,2337.53,2556.99,2733.10,350.00,343.90,25.41,0000 0000 0000 0000 000000
2014-11-08 09:43:59,0.03,3.06,0.00,21.97,26.89,29.91,4.68,27.51,1001.57,2032.93,2337.00,2556.98,2733.00,349.93,343.64,25.44,0000 0000 0000 0000 000000
2014-11-08 09:49:00,0.05,3.06,0.00,21.98,26.87,29.92,4.79,27.63,1001.73,2032.98,2336.53,2556.89,2732.92,350.35,344.39,25.47,0000 0000 0000 0000 000000
2014-11-08 09:54:01,0.08,3.06,0.00,21.97,26.85,29.95,4.73,27.63,1001.85,2032.99,2335.99,2556.45,2732.27,349.93,343.69,25.50,0000 0000 0000 0000 000000
2014-11-08 09:59:03,0.06,3.06,0.00,21.97,26.84,29.91,4.86,27.60,1001.96,2032.99,2335.24,2556.03,2732.01,349.99,343.77,25.53,0000 0000 0000 0000 000000
2014-11-08 10:04:04,0.02,3.06,0.00,21.98,26.82,29.91,4.78,27.47,1001.96,2032.99,2334.81,2556.00,2731.96,350.08,343.89,25.56,0000 0000 0000 0000 000000
2014-11-08 10:09:05,0.06,3.06,0.00,21.95,26.81,29.91,4.79,27.62,1001.96,2032.99,2334.05,2555.98,2731.23,350.07,344.00,25.59,0000 0000 0000 0000 000000
2014-11-08 10:14:06,0.02,3.07,0.00,21.98,26.80,29.88,4.80,27.81,1001.90,2032.99,2333.74,2555.95,2731.01,350.20,344.00,25.62,0000 0000 0000 0000 000000
2014-11-08 10:19:07,0.08,3.07,0.00,22.01,26.78,29.88,4.73,27.63,1001.93,2032.99,2333.04,2555.32,2730.96,350.08,343.90,25.65,0000 0000 0000 0000 000000
2014-11-08 10:24:08,0.08,3.07,0.00,22.01,26.77,29.86,4.79,27.64,1001.96,2033.00,2332.29,2555.01,2730.28,350.59,344.34,25.68,0000 0000 0000 0000 000000
2014-11-08 10:29:10,0.01,3.07,0.00,21.99,26.76,29.86,4.73,27.64,1001.96,2033.00,2331.90,2555.00,2730.02,349.95,343.72,25.71,0000 0000 0000 0000 000000
2014-11-08 10:34:11,0.05,3.07,0.00,22.00,26.75,29.84,4.82,27.63,1001.96,2033.03,2331.10,2554.95,2729.97,350.22,344.19,25.74,0000 0000 0000 0000 000000
2014-11-08 10:39:12,0.11,3.07,0.00,21.98,26.74,29.84,4.69,27.87,1001.97,2033.01,2330.45,2554.39,2729.28,349.91,343.74,25.76,0000 0000 0000 0000 000000
2014-11-08 10:44:14,0.01,3.08,0.00,21.98,26.72,29.83,4.72,27.58,1001.97,2033.01,2329.98,2554.03,2729.00,349.93,343.68,25.79,0000 0000 0000 0000 000000
2014-11-08 10:49:15,0.05,3.08,0.00,21.98,26.72,29.81,4.71,27.73,1001.98,2033.04,2329.20,2554.00,2728.88,349.93,343.55,25.82,0000 0000 0000 0000 000000
2014-11-08 10:54:16,0.04,3.08,0.00,21.97,26.72,29.81,4.76,27.73,1001.97,2033.07,2328.85,2553.98,2728.16,350.08,343.88,25.85,0000 0000 0000 0000 000000
2014-11-08 10:59:17,0.07,3.08,0.00,21.97,26.70,29.78,4.77,27.93,1001.97,2033.09,2328.07,2553.71,2728.00,350.15,343.77,25.88,0000 0000 0000 0000 000000
2014-11-08 11:04:18,0.06,3.08,0.00,21.97,26.70,29.81,4.85,28.03,1001.92,2033.11,2327.67,2553.08,2727.91,350.16,344.03,25.91,0000 0000 0000 0000 000000
2014-11-08 11:09:20,0.09,3.09,0.00,21.96,26.70,29.79,4.76,27.88,1001.95,2033.27,2327.02,2553.00,2727.21,350.39,344.33,25.94,0000 0000 0000 0000 000000
2014-11-08 11:14:21,0.06,3.09,0.00,21.95,26.69,29.77,4.79,27.80,1001.97,2033.46,2326.61,2552.99,2727.01,350.24,344.09,25.97,0000 0000 0000 0000 000000
2014-11-08 11:19:22,0.03,3.09,0.00,21.96,26.67,29.77,4.73,27.71,1001.98,2033.39,2326.01,2552.78,2726.82,350.38,344.18,26.00,0000 0000 0000 0000 000000
2014-11-08 11:24:23,0.10,3.09,0.00,21.94,26.67,29.79,4.73,27.73,1001.97,2033.53,2325.38,2552.18,2726.17,350.12,343.90,26.03,0000 0000 0000 0000 000000
2014-11-08 11:29:24,0.04,3.09,0.00,21.95,26.67,29.76,4.78,27.75,1001.99,2033.60,2324.99,2552.01,2726.00,350.15,343.85,26.06,0000 0000 0000 0000 000000
2014-11-08 11:34:26,0.03,3.09,0.00,21.92,26.66,29.74,4.80,27.65,1002.07,2033.55,2324.34,2552.00,2725.91,350.20,344.48,26.09,0000 0000 0000 0000 000000
2014-11-08 11:39:27,0.07,3.10,0.00,21.92,26.65,29.76,4.74,27.79,1002.18,2033.45,2323.87,2551.76,2725.15,350.13,343.97,26.12,0000 0000 0000 0000 000000
2014-11-08 11:44:28,0.11,3.10,0.00,21.92,26.65,29.76,4.75,27.74,1002.31,2033.66,2323.27,2551.26,2725.00,350.11,344.23,26.15,0000 0000 0000 0000 000000
2014-11-08 11:49:29,0.02,3.10,0.00,21.89,26.65,29.75,4.76,27.63,1002.05,2033.78,2322.97,2551.01,2724.93,350.11,343.99,26.17,0000 0000 0000 0000 000000
2014-11-08 11:54:30,0.10,3.10,0.00,21.88,26.63,29.75,4.81,27.67,1002.04,2033.92,2322.35,2551.00,2724.37,350.19,344.12,26.20,0000 0000 0000 0000 000000
2014-11-08 11:59:32,0.02,3.10,0.00,21.89,26.62,29.72,4.78,27.73,1002.06,2033.96,2321.99,2550.96,2724.00,349.91,343.87,26.23,0000 0000 0000 0000 000000
2014-11-08 12:04:33,0.08,3.11,0.00,21.89,26.62,29.74,4.67,27.67,1002.05,2033.95,2321.27,2550.26,2723.98,349.28,343.33,26.26,0000 0000 0000 0000 000000
2014-11-08 12:09:34,0.03,3.11,0.00,21.88,26.62,29.74,4.76,27.71,1001.99,2033.96,2320.98,2550.02,2723.56,350.13,344.00,26.29,0000 0000 0000 0000 000000
2014-11-08 12:14:35,0.06,3.11,0.00,21.87,26.62,29.74,4.78,27.92,1001.97,2033.97,2320.16,2549.99,2723.02,350.40,344.34,26.32,0000 0000 0000 0000 000000
2014-11-08 12:19:36,0.07,3.11,0.00,21.84,26.60,29.73,4.75,27.94,1001.97,2033.97,2319.66,2549.57,2722.88,349.93,343.88,26.35,0000 0000 0000 0000 000000
2014-11-08 12:24:37,0.07,3.11,0.00,21.85,26.60,29.72,4.82,27.89,1001.97,2033.99,2319.01,2549.03,2722.13,350.40,344.73,26.38,0000 0000 0000 0000 000000
2014-11-08 12:29:39,0.04,3.12,0.00,21.85,26.60,29.71,4.77,27.82,1001.97,2033.98,2318.25,2548.95,2721.94,350.32,344.24,26.41,0000 0000 0000 0000 000000
2014-11-08 12:34:40,0.09,3.12,0.00,21.84,26.60,29.71,4.74,27.82,1001.97,2033.98,2317.91,2548.34,2721.31,349.93,343.96,26.44,0000 0000 0000 0000 000000
2014-11-08 12:39:41,0.05,3.12,0.00,21.82,26.57,29.69,4.76,27.97,1001.97,2033.99,2317.17,2548.01,2721.01,350.14,344.19,26.47,0000 0000 0000 0000 000000
2014-11-08 12:44:42,0.02,3.12,0.00,21.82,26.57,29.70,4.76,27.89,1001.97,2033.99,2316.84,2547.99,2720.73,350.06,344.22,26.50,0000 0000 0000 0000 000000
2014-11-08 12:49:43,0.10,3.12,0.00,21.81,26.57,29.71,4.79,27.96,1001.94,2033.99,2316.07,2547.49,2720.04,350.24,344.34,26.53,0000 0000 0000 0000 000000
2014-11-08 12:54:45,0.05,3.12,0.00,21.80,26.57,29.70,4.80,28.04,1001.95,2033.99,2315.64,2547.04,2719.98,350.45,344.42,26.56,0000 0000 0000 0000 000000
2014-11-08 12:59:46,0.05,3.13,0.00,21.78,26.56,29.70,4.77,28.10,1001.94,2033.98,2314.99,2546.98,2719.31,349.98,344.09,26.58,0000 0000 0000 0000 000000
2014-11-08 13:04:47,0.10,3.13,0.00,21.73,26.55,29.68,4.70,28.02,1001.97,2033.99,2314.19,2546.46,2718.97,349.70,343.68,26.61,0000 0000 0000 0000 000000